User: anonymous   Login
Location: Unspecified
(0.0000°N, 0.0000°E)
Time: 19:18:39
(UTC+00:00)
Language:

Oscar 17 - Orbit

View from above orbital plane
View from above orbital plane
View from above satellite
View from above satellite

Ground track
Ground track

The orbit data is extracted from the following two-line orbital elements,

1 20440U 90005E   18169.09265228  .00000024  00000-0  24818-4 0  9996
2 20440  98.6265 110.1724 0011488 142.3000 283.8363 14.33126351484059
Epoch (UTC): 18 June 2018 02:13:25
Eccentricity: 0.0011488
inclination: 98.6265°
perigee height: 773 km
apogee height: 789 km
right ascension of ascending node: 110.1724°
argument of perigee: 142.3000°
revolutions per day: 14.33126351
mean anomaly at epoch: 283.8363°
orbit number at epoch: 48405

The dashed part of the orbit path shows where the satellite is in the earth's shadow,  

DLR